Flag for Kazakhstan Weather past 2 weeks in Aqtobe, Kazakhstan

Now
77 °F

Overcast.


Feels Like: 77 °F
Forecast: 49 / 61 °F
Wind: 29 mph from West

Location: Aktjubinsk

Current Time: Aug 30, 2015 at 5:06:26 PM

Latest Report: Aug 30, 2015 at 4:30 PM


Visibility: N/A

Pressure: 29.62 "Hg

Humidity: 26%

Dew point: 39 °F

Location of AqtobeLocation

Historic Weather in Aqtobe — Graph

°F

Aqtobe temperature yesterday

Maximum temperature yesterday: 86 °F (at 2:30 PM)
Minimum temperature yesterday: 59 °F (at 6:30 AM)
Average temperature yesterday: 72 °F

Past Weeks' High & Low Weather Summary

 TemperatureHumidityPressure
High95 °F (Aug 16, 2:00 PM)94% (Aug 18, 2:30 AM)30.12 "Hg (Aug 18, 2:30 AM)
Low36 °F (Aug 25, 4:00 AM)9% (Aug 16, 2:00 PM)29.47 "Hg (Aug 17, 4:30 PM)
Average66 °F44%29.91 "Hg
* Reported Aug 15 3:00 PM — Aug 30 3:30 PM, Aqtobe, Weather by CustomWeather, © 2015

Note: Actual official high and low records may vary slightly from our data, if they occured in-between our weather recording intervals... More about our weather records

Advertising

Aqtobe weather history for previous 24 hours

 ConditionsComfort  
Time TempWeatherWind HumidityBarometerVisibility
3:30 PM
Sun, Aug 30
81 °FOvercast.31 mph23%29.62 "HgN/A
3:00 PM81 °FMore clouds than sun.24 mph23%29.62 "HgN/A
2:30 PM79 °FMore clouds than sun.26 mph23%29.65 "HgN/A
2:00 PM81 °FMore clouds than sun.26 mph21%29.65 "HgN/A
1:30 PM81 °FPartly sunny.26 mph21%29.65 "HgN/A
1:00 PM82 °FPartly sunny.29 mph21%29.68 "HgN/A
12:30 PM81 °FOvercast.26 mph23%29.68 "HgN/A
12:00 PM81 °FOvercast.26 mph23%29.71 "HgN/A
11:30 AM81 °FOvercast.29 mph21%29.71 "HgN/A
11:00 AM79 °FOvercast.29 mph23%29.71 "HgN/A
10:30 AM79 °FSunny.26 mph24%29.71 "Hg10 mi
10:00 AM75 °FSunny.22 mph29%29.74 "Hg10 mi
9:30 AM73 °FSunny.22 mph33%29.74 "Hg10 mi
8:30 AM72 °FSunny.20 mph36%29.77 "Hg10 mi
8:00 AM70 °FSunny.20 mph35%29.77 "Hg10 mi
7:30 AM70 °FSunny.17 mph33%29.77 "Hg10 mi
7:00 AM70 °FSunny.15 mph31%29.80 "Hg10 mi
6:30 AM70 °FSunny.17 mph31%29.80 "Hg10 mi
6:00 AM70 °FClear.17 mph31%29.80 "Hg10 mi
5:30 AM70 °FClear.15 mph29%29.83 "Hg10 mi
5:00 AM72 °FClear.15 mph27%29.83 "Hg10 mi
4:30 AM72 °FClear.17 mph25%29.83 "Hg10 mi
4:00 AM72 °FClear.15 mph25%29.83 "Hg10 mi
3:30 AM72 °FClear.15 mph23%29.86 "Hg10 mi
3:00 AM72 °FClear.15 mph23%29.86 "Hg10 mi
2:30 AM72 °FClear.15 mph25%29.86 "Hg10 mi
2:00 AM66 °FClear.6 mph43%29.89 "Hg10 mi
1:30 AM68 °FClear.6 mph38%29.89 "Hg10 mi
1:00 AM68 °FClear.3 mph38%29.92 "Hg10 mi
12:30 AM70 °FClear.6 mph35%29.92 "Hg10 mi
12:00 AM70 °FClear.6 mph35%29.92 "Hg10 mi
11:30 PM
Sat, Aug 29
70 °FClear.6 mph35%29.92 "Hg10 mi
11:00 PM70 °FClear.3 mph35%29.92 "Hg10 mi
10:30 PM73 °FClear.1 mph31%29.95 "Hg10 mi
10:00 PM73 °FClear.3 mph31%29.95 "Hg10 mi
9:30 PM75 °FClear.8 mph29%29.95 "Hg10 mi
9:00 PM75 °FClear.15 mph29%29.92 "Hg10 mi
8:30 PM79 °FClear.10 mph23%29.92 "Hg10 mi
8:00 PM81 °FSunny.8 mph17%29.92 "Hg10 mi
7:30 PM81 °FSunny.20 mph17%29.92 "Hg10 mi
7:00 PM82 °FSunny.17 mph16%29.92 "Hg10 mi
6:30 PM82 °FSunny.20 mph16%29.92 "Hg10 mi
6:00 PM82 °FSunny.20 mph15%29.92 "Hg10 mi
5:30 PM84 °FSunny.22 mph14%29.92 "Hg10 mi
Weather by CustomWeather, © 2015

See weather overviewHow to use our weather pages